Temp
82 93 100 96 80 83 79 84 96 93 94 99 100 97 95 99 93 85 108 112 111 107 94 87 79 79 79 79 79 78 78 78 79 79 79 79 79 79 79 79 79 79 80 80 80 80 80 79 79
94 97 96 90 77 75 81 92 89 93 98 99 98 97 95 95 104 100 103 108 110 105 94 92 79 79 79 79 79 78 78 78 78 78 78 78 78 78 79 78 79 80 80 80 80 80 79 79 79
92 97 88 83 79 75 82 93 93 97 97 96 94 99 97 96 104 105 108 108 108 103 97 92 79 79 79 79 79 78 78 78 78 78 78 78 78 78 78 78 79 80 80 80 80 79 79 79 79
93 92 89 78 76 85 88 93 96 95 97 98 97 90 98 104 102 108 107 108 105 106 101 88 79 78 79 79 78 78 78 78 78 78 78 78 78 78 77 78 78 79 80 80 79 79 79 79 78
94 90 78 77 78 86 93 96 95 92 95 97 98 92 94 102 106 108 104 109 107 108 106 93 79 78 79 79 78 78 78 78 78 78 78 78 78 77 77 78 78 79 79 79 79 79 78 78 78
79 81 72 73 79 88 93 97 95 93 96 97 96 95 98 108 106 108 108 109 111 108 105 95 80 79 78 79 78 78 77 77 77 78 78 78 78 77 77 77 78 78 79 79 79 78 78 77 77
77 77 72 72 78 85 91 98 93 93 94 95 101 91 99 102 107 108 108 110 111 109 105 96 89 83 78 78 78 77 77 77 77 77 77 77 77 77 77 77 77 78 78 78 78 78 77 77 77
84 81 75 78 74 74 88 93 96 93 92 102 101 91 93 104 109 111 112 111 111 109 107 102 93 90 87 86 78 77 77 77 77 77 77 77 77 77 77 76 77 77 77 77 77 77 77 77 77
90 74 71 76 78 81 90 89 95 100 96 98 99 96 99 104 108 108 108 109 109 108 106 104 101 95 92 92 87 78 77 77 77 78 77 77 84 83 83 80 79 77 77 77 77 77 77 77 76
81 74 74 83 85 83 88 89 92 93 93 93 96 101 101 103 104 102 103 104 105 106 106 106 102 98 96 97 93 85 87 85 84 84 84 82 85 86 87 84 78 77 77 77 77 76 76 77 84
78 73 82 85 87 88 85 86 92 90 88 94 93 97 100 100 101 102 104 105 106 107 107 106 98 97 97 98 97 94 90 89 87 85 84 84 86 87 89 88 85 83 78 83 80 80 82 83 86
75 80 81 84 87 88 83 86 84 89 92 99 101 101 99 97 98 101 103 106 107 106 105 105 102 93 93 98 97 95 95 93 91 90 85 84 85 85 86 88 88 84 86 82 84 84 84 84 86
78 80 83 84 84 86 88 83 81 85 93 99 100 100 97 97 98 100 101 103 104 103 104 104 102 94 90 88 95 95 94 96 95 94 89 88 88 84 87 88 89 88 88 86 86 87 86 86 87
81 82 82 84 84 84 82 82 84 86 92 93 95 96 98 98 98 99 99 98 98 99 101 102 101 97 91 88 87 91 92 96 97 96 94 86 87 86 88 87 87 90 90 90 89 87 87 86 87
79 73 77 80 83 81 84 76 77 86 89 89 90 92 93 95 99 98 99 97 98 98 98 98 98 99 91 89 90 90 94 96 95 96 92 90 85 85 85 88 86 88 89 88 88 87 87 86 85
70 72 66 76 78 81 78 68 81 87 86 86 89 91 93 94 96 97 98 97 97 97 95 95 100 100 93 91 92 93 96 95 95 95 95 90 87 85 85 86 86 88 87 89 87 86 85 82 83
67 59 65 70 81 78 74 70 81 87 86 85 87 90 92 93 95 96 98 98 97 96 94 94 94 95 95 93 93 91 90 93 95 95 93 91 88 85 84 86 87 85 87 87 85 85 82 80 82
60 63 66 66 75 79 75 74 80 84 84 84 85 88 90 92 95 98 99 99 96 95 93 92 92 91 92 93 91 93 94 94 94 93 93 90 87 85 81 86 84 85 85 86 85 80 81 81 83
66 63 62 69 78 75 73 74 79 83 83 82 85 88 88 90 95 97 97 97 95 94 91 89 89 87 89 92 91 92 92 93 93 92 91 90 87 85 81 84 84 84 83 82 81 80 77 81 80
62 59 60 66 72 72 70 70 77 81 83 84 84 85 87 89 91 93 94 94 92 91 90 88 88 86 88 91 87 93 94 95 94 93 89 88 85 84 81 82 84 81 82 80 79 77 79 79 76
59 57 57 58 66 69 67 64 68 77 82 83 85 86 88 88 89 90 91 91 92 91 90 89 87 87 88 87 90 89 89 89 92 90 86 84 84 82 80 80 83 79 82 80 78 78 77 74 77
53 64 61 59 57 51 66 52 65 72 74 78 81 84 86 87 88 88 89 90 90 91 92 91 89 87 88 86 85 84 86 86 88 86 86 81 79 78 77 78 79 77 82 81 79 81 78 76 74
57 64 61 60 56 55 57 54 62 72 70 74 79 83 84 87 88 89 91 91 93 93 93 92 89 87 86 85 84 88 84 89 87 87 78 74 75 75 79 77 78 80 83 81 80 78 78 80 75
64 59 59 59 56 45 54 54 57 64 69 75 81 83 85 88 89 90 91 92 93 95 94 92 88 86 87 85 84 84 83 86 85 83 75 72 75 77 77 80 80 81 82 81 81 80 77 75 75
58 50 41 39 43 42 57 53 58 68 74 77 78 82 86 88 89 90 90 92 92 92 92 91 88 84 85 85 84 84 84 86 83 77 77 75 78 79 76 80 78 81 82 81 80 77 76 75 76
48 52 42 31 37 43 54 48 57 72 77 80 81 81 84 85 88 88 90 91 93 92 91 90 88 85 85 84 83 84 85 86 86 82 83 82 83 82 80 81 81 83 82 81 78 78 77 77 77
53 49 56 44 48 40 45 53 64 71 73 76 78 80 81 83 83 85 88 90 91 91 90 89 87 86 85 84 84 83 83 85 85 84 83 82 81 79 82 83 82 82 81 79 77 78 77 77 74
56 59 39 48 34 33 45 50 52 63 67 74 76 77 79 81 84 85 88 89 89 91 89 86 88 85 85 85 84 84 84 85 83 83 84 84 83 83 82 82 81 80 79 79 78 79 77 75 72
51 52 47 47 44 37 35 45 61 67 69 71 76 77 78 81 81 81 83 81 86 88 88 86 86 85 84 85 84 81 79 80 82 83 83 81 81 82 82 82 81 81 80 79 77 75 75 75 72
59 54 51 34 35 48 45 43 63 59 77 75 75 75 79 81 80 76 73 75 82 86 87 86 85 86 86 83 80 78 81 82 81 81 81 82 81 83 83 82 81 81 82 75 76 74 78 74 70
MSLP
1010.50 1009.32 1007.94 1006.80 1005.51 1002.60 999.72 998.05 996.47 996.10 996.09 996.39 996.91 997.11 997.11 996.60 996.54 998.15 999.52 999.48 1000.67 1002.08 1004.15 1005.59 1006.43 1006.96 1007.55 1008.00 1008.45 1008.67 1009.16 1009.57 1009.87 1010.07 1010.26 1010.55 1011.04 1011.43 1011.82 1012.04 1012.19 1012.32 1012.56 1012.76 1012.87 1012.99 1013.06 1013.16 1013.29
1009.33 1008.31 1007.54 1005.53 1003.55 1000.34 998.11 997.03 996.31 996.55 996.58 997.21 997.84 997.60 997.65 996.64 997.03 998.69 999.55 1000.18 1001.01 1002.25 1003.97 1005.02 1006.42 1007.01 1007.54 1008.18 1008.48 1008.80 1009.26 1009.61 1009.99 1010.18 1010.49 1010.79 1011.12 1011.53 1011.92 1012.20 1012.40 1012.61 1012.69 1012.83 1012.98 1013.10 1013.11 1013.20 1013.25
1008.91 1007.96 1006.40 1004.32 1002.13 999.68 996.91 995.82 996.21 996.69 997.26 997.89 997.71 997.98 997.62 997.20 997.60 998.21 999.32 1000.42 1001.34 1002.41 1003.79 1004.78 1006.10 1007.00 1007.52 1008.07 1008.59 1008.86 1009.29 1009.71 1010.11 1010.46 1010.72 1010.97 1011.27 1011.64 1012.03 1012.32 1012.45 1012.69 1012.89 1013.06 1013.11 1013.05 1013.15 1013.24 1013.29
1007.79 1007.31 1006.27 1003.30 1000.59 999.27 997.52 996.27 996.27 996.74 997.81 998.01 997.59 997.99 998.10 998.04 998.44 998.78 1000.08 1000.48 1001.26 1002.14 1003.24 1004.88 1006.09 1006.73 1007.32 1007.86 1008.41 1008.81 1009.32 1009.65 1010.07 1010.49 1010.82 1010.93 1011.22 1011.63 1011.97 1012.20 1012.45 1012.61 1012.88 1013.12 1013.28 1013.30 1013.43 1013.40 1013.43
1007.45 1006.00 1004.20 1002.26 1000.67 999.25 997.81 997.08 997.57 997.29 997.17 997.41 997.80 997.49 997.90 998.61 999.11 999.06 1000.07 1000.23 1001.03 1001.67 1002.76 1004.47 1005.89 1006.61 1007.20 1007.75 1008.19 1008.73 1009.25 1009.66 1010.09 1010.27 1010.71 1011.01 1011.17 1011.53 1011.92 1012.13 1012.31 1012.51 1012.70 1012.88 1013.12 1013.27 1013.27 1013.30 1013.44
1007.29 1006.24 1003.76 1001.42 1000.07 999.07 998.29 997.74 997.98 998.00 997.48 997.31 997.46 997.43 997.34 997.60 998.68 998.87 999.74 1000.03 1000.56 1001.43 1002.51 1003.93 1005.74 1006.59 1007.27 1007.73 1008.00 1008.40 1008.97 1009.32 1009.89 1010.11 1010.45 1010.89 1011.13 1011.47 1011.72 1012.03 1012.13 1012.34 1012.53 1012.74 1012.95 1013.07 1013.29 1013.36 1013.46
1006.49 1005.12 1003.26 1002.06 1000.09 998.46 997.93 998.23 998.12 997.94 997.67 997.35 997.57 997.51 997.51 997.76 998.38 998.61 999.25 999.83 1000.15 1001.33 1002.56 1004.02 1005.48 1006.32 1007.18 1007.74 1008.07 1008.34 1008.64 1008.88 1009.53 1009.91 1010.16 1010.41 1010.82 1011.14 1011.49 1011.86 1012.05 1012.19 1012.31 1012.56 1012.83 1013.07 1013.26 1013.37 1013.46
1005.84 1004.70 1002.84 1001.48 1000.71 1000.01 999.23 998.80 998.76 998.53 997.84 997.56 997.66 997.03 997.18 996.98 997.48 998.37 998.82 999.52 1000.06 1001.04 1002.15 1003.28 1004.68 1005.64 1006.30 1006.99 1007.79 1008.28 1008.68 1008.99 1009.35 1009.62 1010.03 1010.32 1010.49 1010.78 1011.13 1011.52 1011.78 1011.95 1012.22 1012.47 1012.71 1012.89 1013.02 1013.18 1013.29
1005.37 1004.18 1002.20 1001.06 1000.18 999.50 999.39 998.96 998.51 998.05 998.09 997.86 997.97 998.08 998.19 997.75 998.12 998.27 998.66 999.03 999.76 1000.51 1001.55 1002.62 1003.70 1004.81 1005.51 1006.01 1006.80 1007.95 1008.23 1008.71 1009.07 1009.52 1009.84 1010.28 1010.16 1010.23 1010.48 1010.87 1011.10 1011.55 1011.93 1012.28 1012.55 1012.63 1012.82 1012.90 1013.06
1004.39 1002.81 1001.53 1000.96 1000.19 999.46 999.38 999.41 998.92 998.01 997.78 997.74 997.52 997.85 998.74 998.24 998.16 998.32 998.59 998.75 999.35 1000.05 1000.93 1001.90 1003.07 1003.88 1004.67 1004.95 1005.55 1006.81 1007.29 1007.86 1008.26 1008.53 1008.81 1009.50 1009.48 1009.46 1009.72 1010.07 1010.90 1011.23 1011.62 1012.04 1012.14 1012.33 1012.62 1012.91 1012.11
1003.80 1001.61 1001.38 1000.34 1000.29 1000.06 999.62 999.80 999.44 998.29 997.42 997.27 997.21 997.61 998.56 998.31 998.22 998.13 998.31 998.56 998.90 999.40 1000.21 1001.10 1002.75 1003.62 1004.05 1004.28 1004.68 1005.37 1006.11 1006.61 1007.18 1007.77 1008.07 1008.44 1008.66 1008.81 1009.04 1009.24 1010.02 1010.57 1011.17 1011.24 1011.63 1011.84 1012.02 1011.61 1011.28
1002.87 1002.09 1001.59 1000.81 1000.35 999.86 999.98 1000.57 999.89 999.14 997.70 997.42 996.91 997.15 997.67 998.71 998.78 998.53 998.03 998.08 998.30 998.98 999.89 1000.84 1001.85 1003.35 1003.83 1003.74 1004.19 1004.50 1004.92 1005.34 1005.86 1006.24 1007.02 1007.72 1008.15 1008.10 1008.13 1008.33 1008.47 1009.52 1009.74 1010.34 1010.33 1010.63 1010.76 1010.81 1010.40
1001.80 1001.42 1001.16 1000.96 1000.71 1000.46 1000.03 999.81 1000.04 999.43 998.71 997.84 997.51 997.09 997.93 998.76 999.06 999.20 999.05 998.91 998.99 999.33 999.69 1000.76 1001.58 1002.58 1003.51 1003.95 1003.63 1003.82 1004.00 1004.24 1004.51 1004.84 1005.58 1006.37 1006.90 1007.19 1007.48 1007.60 1007.86 1008.00 1008.74 1009.10 1009.50 1009.35 1009.65 1009.73 1009.69
1001.99 1001.13 1000.75 1000.49 1000.03 1000.17 999.88 999.50 1000.04 998.65 999.07 998.43 997.92 997.60 997.75 998.10 998.62 998.87 999.23 999.76 1000.01 1000.23 1000.28 1000.69 1001.26 1001.93 1002.90 1003.41 1003.63 1003.58 1003.62 1003.45 1003.59 1003.83 1004.20 1005.29 1005.98 1006.35 1006.68 1007.09 1007.34 1007.39 1007.51 1007.83 1008.20 1008.65 1008.85 1009.13 1009.12
1002.85 1001.88 1001.05 999.77 999.51 999.45 999.81 998.92 998.38 998.59 998.76 998.22 998.14 998.14 998.25 998.20 998.23 998.22 998.61 999.22 999.91 1000.45 1000.54 1000.54 1000.97 1001.33 1002.15 1002.62 1003.04 1003.32 1003.08 1002.98 1003.05 1002.96 1003.35 1004.05 1005.08 1005.67 1006.16 1006.36 1006.87 1006.92 1006.86 1007.21 1007.56 1008.06 1008.44 1008.68 1008.88
1003.08 1001.91 1000.08 998.36 999.89 999.13 999.88 997.59 997.16 998.07 998.02 997.73 997.67 997.53 997.46 997.64 997.89 998.08 998.30 998.75 999.32 999.84 1000.20 1000.40 1000.33 1000.50 1001.32 1001.79 1002.24 1002.45 1002.31 1002.46 1002.45 1002.55 1002.82 1003.44 1004.13 1005.03 1005.59 1005.86 1006.06 1006.31 1006.64 1006.88 1007.36 1007.75 1007.96 1008.43 1008.50
1002.47 1000.37 999.55 998.69 998.60 998.80 999.19 997.23 996.68 997.30 996.98 996.75 996.79 996.68 996.57 996.64 996.80 997.21 997.71 998.21 998.82 999.44 1000.00 1000.21 1000.39 1000.39 1000.68 1001.12 1001.54 1001.78 1001.87 1001.96 1001.80 1001.89 1002.36 1002.71 1003.54 1004.45 1005.15 1005.35 1005.53 1005.95 1006.25 1006.45 1007.00 1007.30 1007.83 1008.15 1008.08
1001.15 1000.47 999.52 998.38 997.91 997.27 997.27 996.10 996.15 996.67 996.53 996.29 996.34 995.97 995.72 995.55 995.53 996.07 996.60 997.31 998.32 999.16 999.65 999.91 1000.24 1000.40 1000.57 1000.90 1001.20 1001.28 1001.06 1001.04 1001.34 1001.42 1001.77 1002.21 1003.18 1004.05 1004.81 1004.80 1005.19 1005.57 1005.89 1005.99 1006.41 1007.00 1007.59 1007.77 1007.42
1002.14 1001.28 999.64 998.26 997.44 997.03 996.63 995.33 994.63 995.37 995.77 995.66 995.35 994.83 995.05 995.24 995.40 995.89 996.27 996.97 997.76 998.52 999.00 999.44 999.98 1000.14 1000.45 1000.22 1000.32 1000.29 1000.14 1000.03 1000.48 1001.00 1001.38 1001.89 1002.79 1003.57 1004.33 1004.48 1004.83 1005.24 1005.43 1005.67 1006.23 1006.95 1007.49 1007.17 1007.43
1003.00 1002.07 1000.44 999.85 999.04 998.22 996.93 995.73 995.05 994.82 994.23 994.59 994.74 994.73 994.64 994.76 995.16 995.68 996.18 996.66 997.26 997.84 998.24 998.83 999.22 999.64 999.78 999.54 999.77 999.45 999.19 999.12 999.64 1000.43 1001.02 1001.77 1002.51 1003.16 1003.74 1004.03 1004.09 1004.94 1005.21 1005.76 1006.21 1006.81 1006.74 1006.88 1007.53
1003.25 1002.61 1001.81 1000.90 1000.27 999.47 998.17 996.54 995.92 995.01 994.37 994.31 994.08 994.10 994.16 994.16 994.30 994.79 995.50 996.01 996.41 996.84 997.29 997.78 998.27 998.64 998.80 998.87 999.09 999.43 999.64 999.77 999.38 999.97 1000.93 1001.80 1002.31 1002.90 1003.52 1004.06 1003.84 1004.74 1004.97 1005.44 1006.13 1006.46 1006.45 1006.69 1007.24
1003.04 1002.94 1002.43 1001.86 1001.34 999.59 998.97 995.99 995.01 994.75 994.17 993.91 993.64 993.45 993.60 993.92 994.28 994.75 995.06 995.22 995.51 995.87 996.43 996.74 997.18 997.48 998.08 998.62 998.66 998.70 998.85 998.92 999.56 1000.29 1000.82 1001.70 1002.35 1003.01 1003.64 1004.08 1004.10 1004.54 1004.70 1004.69 1005.69 1005.95 1006.15 1006.70 1007.01
1003.05 1003.10 1002.67 1002.05 1001.38 1000.43 999.13 996.88 994.19 994.19 993.08 992.84 992.66 992.87 993.00 993.16 993.42 993.39 993.56 993.89 994.28 994.66 994.74 995.29 996.14 996.61 997.18 997.63 998.11 998.23 998.68 998.68 999.53 999.96 1000.96 1002.11 1002.57 1003.10 1003.38 1003.77 1003.92 1004.26 1004.34 1004.43 1005.07 1005.55 1006.01 1006.24 1006.93
1003.78 1003.42 1002.81 1002.13 1001.29 999.59 998.68 997.18 994.23 993.64 992.86 992.27 991.82 991.88 991.98 992.11 992.26 992.47 992.80 993.00 993.14 993.40 993.66 994.38 995.08 995.70 996.48 997.08 997.56 997.87 998.09 998.12 998.96 999.79 1001.31 1002.01 1002.37 1002.77 1003.07 1003.28 1003.62 1004.01 1004.09 1004.39 1004.92 1005.48 1006.15 1006.70 1006.85
1004.18 1003.73 1002.70 1001.54 1000.40 998.50 998.42 996.90 994.48 993.58 992.83 992.21 991.69 991.40 991.32 991.26 991.50 991.53 991.60 991.92 992.31 992.45 993.05 993.60 994.53 995.29 996.12 996.48 997.02 997.48 997.88 998.09 998.77 1000.19 1000.88 1001.31 1001.47 1002.12 1002.67 1002.93 1003.47 1003.75 1004.04 1004.43 1005.09 1005.77 1006.18 1006.58 1006.58
1004.43 1003.08 1002.15 1001.34 1000.09 998.89 998.35 995.60 994.24 993.45 992.52 991.62 991.61 991.86 991.49 991.64 991.50 991.38 991.22 991.24 991.39 991.76 992.33 993.10 993.74 994.60 995.34 996.14 996.76 997.30 997.74 998.15 998.66 999.39 999.56 1000.35 1000.86 1001.39 1002.29 1002.78 1003.24 1003.55 1004.05 1004.60 1005.30 1005.65 1006.01 1006.08 1006.49
1003.25 1002.47 1002.38 1002.22 1001.58 1000.25 999.65 997.12 994.68 993.44 992.47 992.42 992.01 991.42 991.40 991.52 991.83 991.74 991.48 991.12 991.20 991.45 991.86 992.62 993.49 994.16 995.26 995.87 996.55 997.06 997.74 997.80 998.19 998.52 999.32 1000.08 1000.60 1001.50 1002.14 1002.56 1003.08 1003.49 1004.04 1004.76 1005.20 1005.33 1005.56 1005.76 1006.59
1003.59 1002.90 1003.30 1002.52 1001.93 1000.09 997.94 995.31 993.15 992.34 992.30 991.77 991.38 991.26 991.74 992.00 991.61 991.27 991.16 990.83 991.26 991.36 992.05 993.07 993.42 994.28 995.05 995.70 996.41 996.95 997.31 997.78 998.46 998.99 999.05 999.61 1000.49 1001.30 1002.08 1002.56 1003.09 1003.75 1004.28 1004.57 1004.77 1004.72 1005.22 1005.89 1006.52
1003.28 1002.40 1003.55 1003.53 1003.03 1000.36 998.63 995.89 993.94 991.52 991.63 991.70 991.29 992.02 992.04 991.80 991.69 992.20 992.03 992.43 992.01 991.91 992.54 992.83 993.48 994.28 995.14 995.74 996.19 996.95 997.73 998.44 998.87 999.25 999.85 1000.49 1001.09 1001.66 1002.08 1002.56 1003.08 1003.52 1003.87 1004.23 1004.58 1005.10 1005.39 1005.62 1006.27
1002.49 1002.35 1002.81 1003.49 1002.64 1000.85 999.14 996.82 995.02 994.06 989.23 991.75 992.11 992.90 992.56 992.01 992.06 993.09 993.25 993.15 992.51 991.95 992.32 992.99 993.62 994.40 995.17 995.91 996.79 997.61 998.21 998.70 999.23 999.68 1000.28 1000.91 1001.36 1001.72 1002.08 1002.64 1003.04 1003.26 1003.44 1004.01 1004.53 1004.87 1004.79 1005.25 1006.10
Wind_Speed
13 12 8 7 9 10 18 19 12 13 13 4 5 7 10 16 6 2 12 14 18 19 19 22 20 19 18 17 15 14 13 13 13 14 14 15 14 14 13 12 12 12 11 10 10 9 8 7 6
14 12 7 8 11 15 13 18 10 10 8 7 7 9 10 11 8 15 13 11 19 19 18 20 20 18 18 17 16 15 14 13 13 13 14 14 14 13 12 12 11 11 11 11 10 9 8 7 6
14 10 10 10 15 17 15 19 10 16 6 8 9 7 6 6 1 4 20 15 18 18 18 17 22 18 17 17 15 15 14 13 12 13 13 14 13 11 11 11 11 11 11 10 10 10 9 8 6
8 8 9 14 20 22 25 5 9 7 9 8 5 7 3 6 4 9 17 19 17 17 18 17 22 19 18 17 16 15 14 14 13 13 12 13 12 11 11 12 11 11 11 11 10 9 8 7 6
9 10 13 17 22 24 15 8 6 6 6 12 12 10 9 9 5 15 19 17 17 17 17 20 24 20 19 18 17 16 15 14 14 14 14 13 12 12 11 12 13 12 13 12 11 10 9 7 7
8 7 15 17 23 21 20 12 10 14 14 10 12 12 12 15 12 16 19 17 17 16 15 18 20 19 18 17 18 18 17 16 15 15 15 14 13 13 13 13 14 13 12 12 12 11 9 8 7
15 13 16 21 24 18 16 14 14 17 18 18 14 15 13 12 14 16 18 15 15 15 13 16 15 18 16 16 17 18 18 17 16 16 16 17 16 15 15 15 14 14 13 12 11 10 10 9 8
15 15 25 21 18 22 20 17 16 19 18 15 10 10 17 13 16 17 17 16 14 14 13 13 13 17 17 16 16 16 17 17 17 17 16 17 17 17 16 16 15 15 13 13 12 12 11 10 9
18 17 19 24 23 17 11 16 17 16 19 19 10 17 7 9 12 15 16 16 14 13 13 12 14 16 16 16 16 15 16 17 16 16 16 14 13 16 17 17 16 17 15 14 13 13 12 11 11
22 18 28 22 20 13 13 16 20 18 16 19 14 5 2 7 12 16 17 14 15 15 14 11 10 12 15 12 14 15 15 14 14 15 15 14 14 13 15 15 17 17 16 14 15 13 12 11 10
25 28 26 23 23 20 16 19 18 23 19 18 19 17 12 3 8 18 18 16 16 14 13 13 11 9 12 12 10 8 9 9 10 15 14 13 12 11 11 9 11 11 15 11 13 11 10 12 10
29 32 29 28 27 23 17 18 23 25 22 18 19 17 19 9 7 12 14 16 13 5 5 6 11 11 10 8 10 9 9 9 10 13 16 11 9 10 10 9 12 11 10 12 11 10 11 13 14
33 29 28 28 25 25 26 21 24 26 25 23 21 15 11 14 11 10 10 11 9 9 6 7 8 11 9 10 9 9 9 10 11 12 14 13 12 11 12 10 11 11 12 12 12 11 11 12 12
25 27 31 30 28 28 28 28 22 28 23 25 22 24 19 20 19 16 15 13 12 12 11 9 10 9 12 11 11 7 7 10 10 11 11 17 12 10 12 11 11 10 11 11 12 11 10 9 9
25 28 29 29 26 32 29 29 32 28 27 24 25 24 22 24 22 20 14 13 14 13 13 11 9 7 11 12 10 9 9 10 11 11 11 13 16 13 12 11 11 11 10 10 8 9 9 9 8
23 21 26 33 27 29 23 34 38 29 28 28 28 26 25 24 24 21 18 16 14 14 13 10 10 11 13 10 8 8 10 10 10 10 9 14 14 15 12 11 11 10 9 9 10 10 9 7 10
21 25 28 29 29 29 29 35 31 31 29 29 28 28 25 27 26 20 18 17 11 10 10 12 10 12 10 9 9 10 10 10 10 10 10 12 14 15 13 11 10 10 10 10 10 9 8 9 9
20 26 29 30 28 26 31 36 32 28 27 29 29 27 24 25 25 20 19 15 14 13 10 10 10 12 9 8 7 9 10 11 10 10 11 11 12 15 13 12 11 10 10 10 10 10 9 10 9
22 25 31 30 24 25 30 31 32 30 28 28 26 22 29 29 23 21 14 12 12 12 12 11 13 12 10 11 10 11 11 10 9 10 11 12 12 15 13 12 11 10 11 11 9 8 10 10 6
22 25 28 26 28 27 24 27 30 29 27 27 27 28 27 22 20 20 19 16 14 14 13 14 14 14 12 10 9 10 7 9 10 9 10 11 13 13 12 12 11 10 10 9 10 11 10 8 4
20 22 23 27 23 26 28 29 31 29 29 27 27 27 27 26 24 20 19 18 16 15 14 15 15 14 13 13 8 6 7 7 8 8 9 10 13 11 12 13 9 11 9 10 10 11 12 6 6
22 20 21 21 21 23 25 24 29 25 29 27 27 23 21 22 21 22 22 21 18 17 17 16 15 14 13 12 10 11 9 9 7 7 10 9 9 10 10 10 9 9 10 10 10 9 7 7 7
22 19 23 23 22 25 29 24 22 25 26 26 25 27 29 29 28 27 25 22 21 20 17 14 14 14 14 12 13 11 11 9 8 10 11 8 8 10 14 12 10 11 10 9 10 9 7 5 4
21 21 25 24 20 22 27 27 25 24 25 22 18 20 19 22 22 22 20 21 17 16 16 12 12 13 13 13 14 13 12 10 11 10 10 8 9 9 10 12 9 10 9 9 8 6 8 6 7
24 21 15 18 19 19 23 29 21 23 26 27 15 17 23 11 15 18 19 15 17 15 16 12 12 11 13 14 14 14 12 10 12 14 12 12 10 10 10 11 9 9 8 8 7 7 6 7 8
16 22 14 18 16 19 15 23 25 25 26 10 10 21 12 12 14 14 15 13 11 13 15 13 13 12 13 14 15 13 13 10 11 14 12 11 10 11 12 10 10 9 10 6 7 6 7 8 6
19 16 19 18 24 17 15 25 27 30 23 20 18 15 13 5 10 12 15 14 12 11 11 11 11 13 14 15 13 13 14 13 12 11 12 11 11 9 12 11 10 9 7 8 7 8 8 6 5
15 11 10 13 21 22 20 18 18 31 29 20 17 4 2 7 13 7 10 7 5 9 9 11 12 14 14 15 14 14 13 11 12 11 9 10 10 11 11 10 9 7 8 10 8 7 6 6 6
12 16 8 10 15 13 16 13 15 16 30 21 8 5 4 7 7 7 8 5 7 5 11 12 14 16 15 15 14 12 11 12 13 11 12 11 11 11 11 10 9 8 7 8 7 3 5 9 8
17 15 11 5 10 19 15 17 21 32 29 27 11 3 8 11 9 1 3 7 12 14 14 15 15 16 16 14 12 12 14 15 13 13 12 11 10 9 8 8 9 9 9 5 6 5 7 6 8
Wind_Direction
239 240 247 238 238 232 244 233 243 216 213 209 342 230 250 258 187 71 146 136 143 145 154 169 172 170 170 171 171 166 171 170 167 164 162 162 166 169 168 165 164 166 168 169 168 163 159 152 143
216 232 236 268 244 242 228 242 197 239 195 135 215 220 239 228 90 111 143 145 142 142 157 174 174 173 170 173 174 170 173 175 173 170 171 171 172 172 172 170 171 177 177 176 173 172 167 162 152
251 225 255 227 235 248 256 201 182 212 77 228 195 230 229 165 30 65 131 149 148 150 162 177 168 173 173 173 177 175 177 175 178 178 177 178 175 173 173 176 178 184 184 186 184 177 175 172 167
209 209 251 261 249 229 261 17 189 156 200 217 247 178 287 36 8 124 143 151 152 161 165 152 164 174 176 176 178 179 183 179 182 181 186 184 178 177 178 178 184 190 193 194 193 188 188 185 187
250 262 238 241 242 264 239 260 259 238 229 186 185 212 204 179 230 144 154 162 164 168 168 149 162 177 180 179 178 181 183 185 187 185 189 191 183 182 184 186 191 196 197 196 198 199 200 202 211
227 252 252 243 247 234 255 247 242 242 251 235 217 226 213 173 185 155 166 170 172 165 166 145 163 171 181 185 183 183 185 187 193 189 189 190 190 190 190 196 198 200 203 202 203 202 210 217 231
237 224 245 270 281 272 232 239 242 238 243 228 223 233 246 151 198 177 173 171 170 155 169 142 171 175 179 190 192 188 189 189 194 195 192 190 193 195 195 200 201 204 206 206 207 208 214 223 234
237 253 261 248 244 261 286 284 249 257 270 279 306 235 224 186 162 176 174 170 177 163 167 169 168 182 189 192 195 194 194 196 198 197 197 198 195 196 198 199 203 208 211 210 212 213 215 221 227
230 247 250 250 255 246 248 266 255 241 236 238 223 248 17 79 151 186 192 176 186 174 173 183 179 177 191 198 191 196 199 204 201 203 204 199 208 201 204 206 201 204 210 212 215 218 220 220 226
225 238 240 250 259 281 261 260 265 240 229 248 215 215 202 188 187 197 199 193 191 184 181 182 203 193 189 202 193 194 203 210 211 213 208 212 216 216 210 205 210 199 205 213 218 220 220 228 241
241 241 249 248 248 257 263 256 262 266 247 225 232 199 202 161 214 207 200 213 198 202 190 185 172 203 208 204 195 193 202 204 207 213 211 210 218 218 208 212 193 207 204 214 212 213 221 222 231
232 241 250 259 271 275 245 261 268 271 259 255 246 219 186 171 226 224 242 218 218 186 196 226 184 188 213 222 197 205 212 201 204 206 206 213 207 215 219 207 201 195 206 215 212 210 213 227 229
243 247 249 252 256 261 268 237 254 255 262 266 263 262 210 214 234 246 273 286 280 249 224 216 214 180 202 215 226 212 215 210 222 209 196 203 216 215 207 217 220 195 208 196 222 220 208 215 225
258 252 252 254 252 249 249 256 253 250 253 259 254 256 247 236 237 234 220 234 260 265 252 246 231 181 190 209 215 237 225 240 226 226 211 193 206 213 217 208 211 226 206 218 202 217 227 223 232
262 264 266 261 244 248 256 252 243 253 253 248 242 247 252 258 249 245 244 234 235 242 254 254 247 211 197 204 215 222 244 234 238 232 213 194 201 212 211 213 215 217 225 223 211 221 214 236 223
278 265 251 242 247 249 245 253 249 244 250 248 248 245 243 238 238 244 248 243 245 247 245 247 252 232 193 206 226 242 247 233 242 230 225 203 192 214 210 220 211 218 219 213 221 214 222 210 235
244 251 248 256 243 238 234 249 249 252 252 246 240 246 243 242 239 234 241 249 249 253 244 246 252 244 250 212 234 240 242 243 242 229 226 201 199 198 225 212 221 207 218 212 209 222 211 223 234
255 244 247 253 256 246 230 237 244 249 251 248 255 259 254 242 246 246 232 223 213 224 242 243 245 246 240 255 249 250 247 232 233 229 219 195 195 201 195 213 218 202 216 213 208 206 212 235 240
281 274 277 278 275 244 252 258 246 240 236 249 255 251 229 244 250 250 256 259 254 242 228 237 239 244 250 243 237 240 235 229 224 223 209 200 191 199 188 216 195 208 210 216 188 201 222 228 228
279 279 273 275 271 279 273 267 265 260 246 247 245 246 253 249 243 248 249 247 240 243 235 228 234 236 236 227 237 250 252 233 214 208 191 194 192 195 188 212 191 188 207 197 191 207 214 220 208
271 266 274 282 287 274 266 256 264 265 257 256 252 251 253 253 253 252 257 256 251 246 237 229 227 231 232 227 221 222 251 258 205 193 177 196 191 190 186 211 189 174 217 188 200 203 224 193 200
271 269 273 276 268 260 255 261 249 245 249 251 251 246 249 255 259 254 249 251 247 246 248 241 230 221 220 206 228 213 216 208 207 198 202 177 178 168 169 208 200 177 206 176 191 198 205 229 208
276 277 275 267 263 267 253 260 254 245 244 240 240 241 241 241 242 247 248 252 251 246 238 224 226 214 214 195 216 216 221 199 182 203 135 152 158 168 185 189 199 183 212 156 180 186 196 178 227
289 282 271 262 258 251 252 249 251 246 249 259 258 258 256 247 245 245 253 250 248 248 243 225 217 215 205 211 199 226 191 218 170 154 161 168 173 179 183 184 177 178 206 165 189 171 191 215 236
255 258 260 250 241 253 249 251 246 256 243 249 263 264 241 262 262 248 238 238 238 231 231 210 207 212 210 201 195 197 194 191 151 152 167 162 173 173 176 171 173 178 207 150 184 185 200 212 228
282 251 244 262 260 257 320 258 245 248 255 256 270 281 275 256 254 253 245 245 249 235 203 206 194 199 188 188 186 182 174 175 160 191 148 167 168 167 164 174 174 178 187 166 186 194 208 205 203
276 251 254 270 281 269 271 271 275 240 249 250 252 242 219 276 297 274 258 250 238 230 199 190 200 181 175 174 171 167 172 165 168 148 150 164 161 137 164 174 176 193 167 187 183 219 202 175 180
252 282 260 237 261 262 265 262 259 202 231 217 229 161 281 266 261 276 259 238 242 210 157 192 167 161 163 157 157 161 157 143 127 144 153 135 116 147 162 171 176 171 190 202 193 201 172 185 183
247 245 184 263 230 273 269 276 353 237 202 217 199 97 319 306 22 300 344 338 263 163 179 167 159 156 153 154 149 129 125 131 142 137 137 130 142 149 166 171 177 187 189 193 189 213 207 212 188
263 266 314 234 290 264 278 285 309 298 182 198 107 72 332 329 82 129 205 210 198 188 150 158 151 151 152 132 132 132 139 137 137 137 137 142 151 163 159 166 179 186 192 135 194 212 233 204 174